Skip Page Navigation
NASA JPL Caltech
NASA Logo - Jet Propulsion Laboratory + View the NASA Portal
+ Center for Near-Earth Object Studies
JPL Home Earth Solar System Stars & Galaxies Technology
JPL Solar System Dynamics
BODIES ORBITS EPHEMERIDES TOOLS PHYSICAL DATA DISCOVERY FAQ SITE MAP
JPL Small-Body Database Browser
Search: [ help ]  
351488 (2005 QK103)
Classification: Outer Main-belt Asteroid          SPK-ID: 2351488
Ephemeris | Orbit Diagram | Orbital Elements | Mission Design | Physical Parameters | Discovery Circumstances | Close-Approach Data ]

[ show orbit diagram ]
Orbital Elements at Epoch 2459200.5 (2020-Dec-17.0) TDB
Reference: JPL 9 (heliocentric ecliptic J2000)
 Element Value Uncertainty (1-sigma)   Units 
e .1823053977554832 6.2312e-08  
a 3.200465354990444 4.0501e-08 au
q 2.617003245446267 1.9801e-07 au
i 3.387697365322854 6.7221e-06 deg
node 270.6597892658648 0.00012451 deg
peri 140.0313112863529 0.00012664 deg
M 195.9786785133274 2.3064e-05 deg
tp 2460153.331109417432
(2023-Jul-27.83110942)
0.0001444 TDB
period 2091.308595011822
5.73
3.9698e-05
1.087e-07
d
yr
n .172141022543813 3.2676e-09 deg/d
Q 3.78392746453462 4.7885e-08 au
  Orbit Determination Parameters
   # obs. used (total)      153  
   data-arc span      5374 days (14.71 yr)  
   first obs. used      2005-08-27  
   last obs. used      2020-05-14  
   planetary ephem.      DE441  
   SB-pert. ephem.      SB441-N16  
   condition code      0  
   norm. resid. RMS      .55382  
   source      ORB  
   producer      Otto Matic  
   solution date      2021-Apr-14 08:58:27  

Additional Information
 Earth MOID = 1.62809 au 
 Jupiter MOID = 1.60543 au 
 T_jup = 3.165 
[ show covariance matrix ]

Ephemeris | Orbit Diagram | Orbital Elements | Mission Design | Physical Parameters | Discovery Circumstances | Close-Approach Data ]

Physical Parameter Table
Parameter Symbol Value Units Sigma Reference Notes
absolute magnitude H 16.34   n/a E2021B25  

351488 (2005 QK103)          Discovered 2005-Aug-27 by NEAT at Palomar
Reference: 20130127/Numbers.arcLast Updated: 2013-01-31

[ show close-approach data ]
Alternate Designations
 2005 QK103 = 2006 XO72 
Ephemeris | Orbit Diagram | Orbital Elements | Mission Design | Physical Parameters | Discovery Circumstances | Close-Approach Data ]
ABOUT SSD CREDITS/AWARDS PRIVACY/COPYRIGHT GLOSSARY LINKS
FirstGov 2021-Jun-23 00:33 UT
(server date/time)  
NASA Home Page
Site Manager:   Ryan S. Park
Webmaster  Alan B. Chamberlin